Date String (YYYY-MM-DD hh:mm:ss) UTC,Instrument flags,Ambient pressure (hPa),Sample flow (lpm),Bypass flow (lpm),Sample temperature (°C),Ambient temperature (°C),ASC tube jacket temperature (°C),LED temperature (°C),Box temperature (°C),Sample RH (%),Span deviation,Mass concentration (μg/m³),Mass concentration (μg/m³),Mass concentration (μg/m³)
DateTimeUTC,F1_M11,P_M11,Q1_M11,Q2_M11,T1_M11,T2_M11,T3_M11,T4_M11,T5_M11,U1_M11,ZSPAN_M11,X0_M11,X2_M11,X1_M11
2022-09-25 19:00:00,,0835.2,5.00,0.00,30.2,28.1,00.0,39.0,32.0,16.6,0000.6,0012.14,0006.97,0006.33
2022-09-25 19:01:00,,0835.2,5.00,0.00,30.2,28.3,00.0,39.0,32.0,16.4,0000.1,0012.47,0006.97,0006.32
2022-09-25 19:02:00,,0835.2,5.01,0.00,30.2,28.5,00.0,39.0,32.1,16.3,-000.1,0013.55,0006.99,0006.32
2022-09-25 19:03:00,,0835.2,5.00,0.00,30.2,28.7,00.0,39.0,32.1,16.2,-000.6,0013.76,0006.97,0006.33
2022-09-25 19:04:00,,0835.2,5.00,0.00,30.3,28.9,00.0,39.0,32.1,16.2,-000.7,0014.02,0006.98,0006.33
2022-09-25 19:05:00,,0835.2,4.99,0.00,30.3,29.0,00.0,39.0,32.2,16.1,-000.6,0014.33,0007.02,0006.36
2022-09-25 19:06:00,,0835.2,4.99,0.00,30.3,29.1,00.0,39.0,32.2,16.2,-000.9,0014.32,0007.02,0006.36
2022-09-25 19:07:00,,0835.2,5.00,0.00,30.3,29.1,00.0,39.0,32.2,16.2,-001.1,0014.40,0007.02,0006.35
2022-09-25 19:08:00,,0835.2,5.00,0.00,30.4,29.2,00.0,39.0,32.3,16.4,-001.3,0014.34,0006.98,0006.33
2022-09-25 19:09:00,,0835.1,5.00,0.00,30.4,29.3,00.0,39.0,32.3,16.0,-001.2,0014.28,0006.95,0006.32
2022-09-25 19:10:00,,0835.1,5.00,0.00,30.4,29.4,00.0,39.1,32.4,15.8,-000.8,0014.03,0006.97,0006.34
2022-09-25 19:11:00,,0835.1,5.01,0.00,30.4,29.4,00.0,39.1,32.4,15.9,-000.7,0013.84,0006.99,0006.36
2022-09-25 19:12:00,,0835.1,5.01,0.00,30.5,29.5,00.0,39.1,32.4,16.1,-000.6,0013.68,0007.02,0006.41
2022-09-25 19:13:00,,0835.1,5.00,0.00,30.5,29.5,00.0,39.1,32.5,15.8,-000.1,0012.33,0007.02,0006.42
2022-09-25 19:14:00,,0835.0,5.00,0.00,30.5,29.4,00.0,39.2,32.5,15.9,0000.2,0012.25,0007.03,0006.41
2022-09-25 19:15:00,,0835.1,5.00,0.00,30.6,28.2,00.0,39.1,32.3,15.9,0000.4,0011.97,0007.01,0006.43
2022-09-25 19:16:00,,0835.1,4.99,0.00,30.5,26.8,00.0,39.1,32.1,16.2,0000.5,0011.62,0007.00,0006.42
2022-09-25 19:17:00,,0835.1,5.01,0.00,30.4,26.7,00.0,39.0,32.1,16.3,0000.7,0011.95,0007.01,0006.42
2022-09-25 19:18:00,,0835.1,5.02,0.00,30.3,26.9,00.0,39.0,31.9,16.5,0001.1,0011.96,0006.97,0006.42
2022-09-25 19:19:00,,0835.0,5.01,0.00,30.2,27.3,00.0,39.0,31.9,16.4,0001.1,0011.74,0006.97,0006.42
2022-09-25 19:20:00,,0835.0,4.99,0.00,30.2,27.6,00.0,39.0,31.9,16.5,0000.8,0012.12,0006.99,0006.42
2022-09-25 19:21:00,,0835.0,5.00,0.00,30.2,28.0,00.0,38.9,32.0,16.4,0000.6,0012.24,0007.01,0006.40
2022-09-25 19:22:00,,0835.0,5.01,0.00,30.2,28.2,00.0,38.9,32.0,16.6,0000.6,0012.50,0007.01,0006.39
2022-09-25 19:23:00,,0835.0,4.99,0.00,30.2,28.5,00.0,38.9,32.0,16.6,0000.9,0012.37,0006.99,0006.37
2022-09-25 19:24:00,,0835.0,5.00,0.00,30.2,28.7,00.0,38.9,32.1,16.6,0001.2,0012.29,0006.96,0006.35
2022-09-25 19:25:00,,0835.0,5.01,0.00,30.2,28.8,00.0,38.9,32.1,16.9,0001.4,0012.32,0006.97,0006.35
2022-09-25 19:26:00,,0835.0,4.99,0.00,30.2,28.9,00.0,38.9,32.1,16.7,0001.3,0012.42,0006.97,0006.34
2022-09-25 19:27:00,,0834.9,5.00,0.00,30.3,29.0,00.0,38.9,32.2,16.7,0001.4,0012.60,0007.01,0006.34
2022-09-25 19:28:00,,0835.0,5.01,0.00,30.3,29.2,00.0,39.0,32.2,16.6,0002.0,0012.20,0007.01,0006.35
2022-09-25 19:29:00,,0834.9,4.99,0.00,30.3,29.2,00.0,39.0,32.3,16.4,0002.6,0011.70,0007.02,0006.36
2022-09-25 19:30:00,,0835.0,5.00,0.00,30.4,29.3,00.0,39.0,32.3,16.5,0002.6,0011.96,0007.04,0006.37
2022-09-25 19:31:00,,0835.0,5.00,0.00,30.4,29.4,00.0,39.0,32.3,16.4,0002.9,0012.12,0007.03,0006.38
2022-09-25 19:32:00,,0834.9,5.00,0.00,30.4,29.4,00.0,39.1,32.4,16.2,0003.0,0012.34,0007.05,0006.40
2022-09-25 19:33:00,,0834.9,5.01,0.00,30.5,29.5,00.0,39.1,32.4,16.2,0003.0,0012.54,0007.10,0006.42
2022-09-25 19:34:00,,0834.9,5.01,0.00,30.5,29.6,00.0,39.1,32.5,16.2,0002.7,0012.55,0007.13,0006.44
2022-09-25 19:35:00,,0834.9,5.00,0.00,30.5,29.6,00.0,39.1,32.5,16.2,0002.4,0012.50,0007.14,0006.45
2022-09-25 19:36:00,,0834.9,5.01,0.00,30.6,28.8,00.0,39.1,32.5,16.0,0002.4,0012.43,0007.15,0006.46
2022-09-25 19:37:00,,0834.9,5.00,0.00,30.5,27.1,00.0,39.1,32.3,15.9,0002.3,0012.34,0007.17,0006.47
2022-09-25 19:38:00,,0834.9,5.00,0.00,30.5,26.6,00.0,39.0,32.1,16.1,0002.3,0012.45,0007.17,0006.46
2022-09-25 19:39:00,,0834.8,5.00,0.00,30.4,26.8,00.0,39.0,32.0,16.4,0001.7,0012.57,0007.18,0006.45
2022-09-25 19:40:00,,0834.8,5.01,0.00,30.3,27.1,00.0,39.0,32.0,16.2,0000.8,0012.48,0007.19,0006.45
2022-09-25 19:41:00,,0834.8,5.00,0.00,30.2,27.6,00.0,39.0,32.0,16.2,0000.4,0012.11,0007.19,0006.44
2022-09-25 19:42:00,,0834.8,5.00,0.00,30.2,27.9,00.0,38.9,32.0,16.2,0000.2,0011.70,0007.19,0006.43
2022-09-25 19:43:00,,0834.8,4.99,0.00,30.2,28.2,00.0,38.9,32.0,16.0,-000.1,0011.67,0007.14,0006.41
2022-09-25 19:44:00,,0834.8,5.00,0.00,30.2,28.4,00.0,38.9,32.0,16.0,-000.1,0011.23,0007.08,0006.39
2022-09-25 19:45:00,,0834.8,5.00,0.00,30.2,28.6,00.0,38.9,32.1,16.1,-000.0,0011.47,0007.01,0006.38
2022-09-25 19:46:00,,0834.8,5.00,0.00,30.2,28.8,00.0,38.9,32.1,15.9,0000.4,0012.05,0007.04,0006.39
2022-09-25 19:47:00,,0834.8,4.99,0.00,30.3,28.9,00.0,39.0,32.1,15.8,0000.3,0011.94,0007.00,0006.39
2022-09-25 19:48:00,,0834.8,4.99,0.00,30.3,29.0,00.0,39.0,32.2,15.8,0000.4,0011.78,0006.98,0006.40
2022-09-25 19:49:00,,0834.7,5.01,0.00,30.3,29.1,00.0,39.0,32.2,15.8,0000.8,0011.87,0006.98,0006.42
2022-09-25 19:50:00,,0834.7,5.01,0.00,30.4,29.2,00.0,39.0,32.3,15.8,0000.6,0011.99,0006.98,0006.45
2022-09-25 19:51:00,,0834.7,5.00,0.00,30.4,29.3,00.0,39.0,32.3,15.6,0000.8,0012.46,0007.01,0006.46
2022-09-25 19:52:00,,0834.7,5.00,0.00,30.4,29.4,00.0,39.0,32.4,15.3,0001.3,0012.92,0007.02,0006.46
2022-09-25 19:53:00,,0834.7,5.00,0.00,30.5,29.5,00.0,39.1,32.4,15.5,0001.4,0012.94,0007.00,0006.47
2022-09-25 19:54:00,,0834.7,5.01,0.00,30.5,28.9,00.0,39.1,32.4,15.5,0001.6,0013.22,0007.02,0006.48
2022-09-25 19:55:00,,0834.7,5.00,0.00,30.5,27.3,00.0,39.0,32.2,15.7,0001.2,0013.42,0007.07,0006.49
2022-09-25 19:56:00,,0834.7,4.99,0.00,30.4,26.6,00.0,39.0,32.1,16.1,0001.4,0013.03,0007.09,0006.49
2022-09-25 19:57:00,,0834.7,4.99,0.00,30.3,26.8,00.0,38.9,32.0,16.2,0000.4,0012.89,0007.09,0006.49
2022-09-25 19:58:00,,0834.7,5.00,0.00,30.2,27.1,00.0,38.9,31.9,16.2,0000.5,0013.92,0007.10,0006.49
2022-09-25 19:59:00,,0834.7,5.00,0.00,30.2,27.5,00.0,38.9,31.9,15.9,0001.7,0014.02,0007.12,0006.49
